FW0530 Weather Reports


time (UTC)temp
F
wind
direction
speed
knots
gust
knots
rain 1hr
in
rain 24hr
in
rain mn
in
humidity
%
barometer
mb
20260509173027 60 75 1.7 4.3 0.00 0.08 0.08 78 1008.4
20260509171536 59 64 0.0 3.5 0.00 0.08 0.08 80 1008.5
20260509170022 58 355 0.0 2.6 0.00 0.08 0.08 79 1008.8
20260509164520 58 121 0.0 0.0 0.00 0.08 0.08 81 1008.9
20260509163020 58 121 0.0 0.0 0.00 0.08 0.08 82 1008.9
20260509161519 58 122 0.0 1.7 0.00 0.08 0.08 83 1008.9
20260509160020 58 124 1.7 5.2 0.00 0.08 0.08 83 1008.9
20260509154517 58 78 0.9 3.5 0.00 0.08 0.08 83 1008.8
20260509153015 57 83 2.6 5.2 0.00 0.08 0.08 84 1008.7
20260509151513 56 34 1.7 4.3 0.01 0.08 0.08 86 1008.8
20260509150010 55 360 0.0 0.0 0.02 0.08 0.08 88 1009.0
20260509144511 55 355 0.0 0.0 0.04 0.08 0.08 88 1009.1
20260509143108 54 338 0.0 0.0 0.06 0.08 0.08 88 1009.1
20260509141519 54 355 0.0 2.6 0.06 0.07 0.07 87 1009.0
20260509140007 54 69 1.7 3.5 0.06 0.06 0.06 87 1009.1
20260509134504 54 79 0.0 4.3 0.03 0.03 0.03 86 1009.1
20260509133005 55 84 0.0 0.0 0.02 0.02 0.02 86 1009.1
20260509131507 55 102 0.0 0.0 0.01 0.01 0.01 85 1009.1
20260509130003 55 101 0.0 0.0 0.00 0.00 0.00 85 1009.1
20260509124501 54 107 0.0 0.0 0.00 0.00 0.00 84 1009.0
20260509123002 54 108 0.0 0.0 0.00 0.00 0.00 84 1009.0
20260509121604 54 109 0.0 0.0 0.00 0.00 0.00 83 1009.2
20260509120107 54 109 0.0 0.0 0.00 0.00 0.00 83 1009.4
20260509114603 53 109 0.0 0.0 0.00 0.00 0.00 85 1009.4
20260509113055 52 109 0.0 0.0 0.00 0.00 0.00 85 1009.2
20260509111554 52 109 0.0 0.0 0.00 0.00 0.00 86 1009.1
20260509110056 52 271 0.0 0.0 0.00 0.00 0.00 85 1008.8
20260509104553 52 271 0.0 0.0 0.00 0.00 0.00 85 1008.8
20260509103052 51 271 0.0 0.0 0.00 0.00 0.00 85 1008.6
20260509101553 51 236 0.0 0.0 0.00 0.00 0.00 85 1008.4
20260509100057 51 221 0.0 0.0 0.00 0.00 0.00 85 1008.0
20260509094553 51 221 0.0 0.0 0.00 0.00 0.00 85 1008.0
20260509093050 51 221 0.0 0.0 0.00 0.00 0.00 85 1008.1
20260509091549 51 221 0.0 0.0 0.00 0.00 0.00 85 1008.1
20260509090048 51 221 0.0 0.0 0.00 0.00 0.00 84 1008.1
20260509084553 51 221 0.0 0.0 0.00 0.00 0.00 83 1008.2
20260509083045 51 221 0.0 0.0 0.00 0.00 0.00 83 1008.2
20260509081548 51 221 0.0 0.0 0.00 0.00 0.00 83 1008.3
20260509080046 51 221 0.0 0.0 0.00 0.00 0.00 83 1008.4
20260509074545 51 228 0.0 0.0 0.00 0.00 0.00 84 1008.4
20260509073042 51 228 0.0 0.0 0.00 0.00 0.00 83 1008.3
20260509071547 51 228 0.0 0.0 0.00 0.00 0.00 83 1008.5
20260509070042 51 229 0.0 0.0 0.00 0.00 0.00 83 1008.6
20260509064540 51 229 0.0 0.0 0.00 0.00 0.00 82 1008.6
20260509063040 51 226 0.0 0.0 0.00 0.00 0.00 82 1008.4
20260509061546 52 226 0.0 0.0 0.00 0.00 0.00 81 1008.6
20260509060037 52 227 0.0 0.0 0.00 0.00 0.00 82 1008.8
20260509054532 52 227 0.0 0.0 0.00 0.00 0.00 81 1008.9
20260509053035 53 227 0.0 0.0 0.00 0.00 0.00 82 1008.8
20260509051534 52 126 0.0 0.0 0.00 0.00 0.00 81 1008.8
20260509050046 52 126 0.0 0.0 0.00 0.00 0.00 82 1008.9
20260509044541 52 126 0.0 0.0 0.00 0.00 0.00 81 1008.8
20260509043028 53 126 0.0 0.0 0.00 0.00 0.00 82 1009.1
20260509041526 53 126 0.0 0.0 0.00 0.00 0.00 80 1009.3
20260509040024 53 126 0.0 0.0 0.00 0.00 0.00 79 1009.4
20260509034524 52 126 0.0 0.0 0.00 0.00 0.00 79 1009.4
20260509033023 53 126 0.0 0.0 0.00 0.00 0.00 78 1009.3
20260509031522 54 126 0.0 0.0 0.00 0.00 0.00 75 1009.5
20260509030023 54 126 0.0 0.0 0.00 0.00 0.00 74 1009.6
20260509024521 54 123 0.0 0.0 0.00 0.00 0.00 75 1009.7
20260509023022 54 130 0.0 0.0 0.00 0.00 0.00 77 1009.9
20260509021521 54 130 0.0 0.0 0.00 0.00 0.00 78 1009.9
20260509020020 54 130 0.0 0.0 0.00 0.00 0.00 78 1009.7
20260509014524 55 130 0.0 0.0 0.00 0.00 0.00 77 1009.9
20260509013034 55 130 0.0 0.0 0.00 0.00 0.00 76 1009.7
20260509011519 54 130 0.0 0.0 0.00 0.00 0.00 75 1009.7
20260509010018 54 132 0.0 6.1 0.00 0.00 0.00 74 1009.4
20260509004517 54 296 0.0 0.0 0.00 0.00 0.00 75 1009.4
20260509003019 55 296 0.0 0.0 0.00 0.00 0.00 73 1009.4
20260509001517 56 296 0.0 0.9 0.00 0.00 0.00 72 1009.2
20260509000016 58 296 0.0 0.0 0.00 0.00 0.00 65 1009.2
20260508234517 60 296 0.0 1.7 0.00 0.00 0.00 64 1009.1
20260508233115 62 296 0.0 1.7 0.00 0.00 0.00 59 1008.9
20260508231514 64 296 0.9 4.3 0.00 0.00 0.00 55 1009.0
20260508230034 64 311 1.7 6.1 0.00 0.00 0.00 50 1008.9
20260508224538 64 295 1.7 5.2 0.00 0.00 0.00 49 1009.0
20260508223024 64 252 2.6 4.3 0.00 0.00 0.00 48 1009.1
20260508221512 65 240 2.6 7.8 0.00 0.00 0.00 49 1009.1
20260508220012 65 252 2.6 7.0 0.00 0.00 0.00 46 1009.1
20260508214511 65 227 3.5 10.4 0.00 0.00 0.00 45 1009.1
20260508213010 66 236 3.5 10.4 0.00 0.00 0.00 44 1009.1
20260508211512 66 186 1.7 10.4 0.00 0.00 0.00 45 1009.0
20260508210010 66 51 2.6 9.6 0.00 0.00 0.00 46 1009.1
20260508204516 65 186 1.7 8.7 0.00 0.00 0.00 45 1009.0
20260508203007 65 241 2.6 10.4 0.00 0.00 0.00 43 1009.2
20260508201506 66 255 1.7 9.6 0.00 0.00 0.00 47 1009.3
20260508200005 67 184 3.5 12.2 0.00 0.00 0.00 42 1009.2
20260508194504 68 204 3.5 13.9 0.00 0.00 0.00 39 1009.4
20260508193003 66 116 5.2 13.0 0.00 0.00 0.00 46 1009.4
20260508191504 66 184 1.7 10.4 0.00 0.00 0.00 42 1009.7
20260508190002 67 198 2.6 13.9 0.00 0.00 0.00 41 1009.8
20260508184635 70 229 5.2 14.8 0.00 0.00 0.00 40 1009.8
20260508183113 69 207 7.0 13.0 0.00 0.00 0.00 44 1009.8
20260508181600 67 210 3.5 13.9 0.00 0.00 0.00 38 1010.0
20260508174615 67 146 7.0 13.0 0.00 0.00 0.00 45 1010.4